Date String (YYYY-MM-DD hh:mm:ss) UTC,Instrument flags,Ambient pressure (hPa),Sample flow (lpm),Bypass flow (lpm),Sample temperature (°C),Ambient temperature (°C),ASC tube jacket temperature (°C),LED temperature (°C),Box temperature (°C),Sample RH (%),Span deviation,Mass concentration (μg/m³),Mass concentration (μg/m³),Mass concentration (μg/m³)
DateTimeUTC,F1_M11,P_M11,Q1_M11,Q2_M11,T1_M11,T2_M11,T3_M11,T4_M11,T5_M11,U1_M11,ZSPAN_M11,X0_M11,X2_M11,X1_M11
2022-07-23 16:00:00,,0826.0,4.99,0.00,29.7,27.8,00.0,38.3,31.6,24.9,0000.0,0012.04,0005.35,0004.51
2022-07-23 16:01:00,,0825.9,5.01,0.00,29.7,27.4,00.0,38.3,31.5,24.6,0000.0,0012.18,0005.38,0004.53
2022-07-23 16:02:00,,0826.0,4.99,0.00,29.6,27.4,00.0,38.3,31.5,24.4,0000.0,0012.25,0005.43,0004.55
2022-07-23 16:03:00,,0825.9,5.01,0.00,29.6,27.6,00.0,38.3,31.4,24.9,0000.0,0012.43,0005.45,0004.55
2022-07-23 16:04:00,,0825.9,5.00,0.00,29.6,27.7,00.0,38.3,31.4,25.2,0000.0,0011.89,0005.48,0004.58
2022-07-23 16:05:00,,0826.0,5.00,0.00,29.6,27.9,00.0,38.3,31.5,25.2,0000.0,0012.18,0005.54,0004.62
2022-07-23 16:06:00,,0826.0,5.00,0.00,29.6,28.1,00.0,38.3,31.5,25.6,0000.0,0012.85,0005.63,0004.68
2022-07-23 16:07:00,,0826.0,5.01,0.00,29.6,28.3,00.0,38.3,31.6,25.2,0000.0,0013.47,0005.75,0004.74
2022-07-23 16:08:00,,0826.0,5.00,0.00,29.7,28.3,00.0,38.3,31.6,25.3,0000.0,0013.98,0005.79,0004.79
2022-07-23 16:09:00,,0826.0,5.00,0.00,29.7,27.9,00.0,38.3,31.6,24.7,0000.0,0014.32,0005.89,0004.85
2022-07-23 16:10:00,,0826.0,5.01,0.00,29.6,27.5,00.0,38.2,31.5,24.2,0000.0,0015.73,0005.96,0004.90
2022-07-23 16:11:00,,0826.0,5.00,0.00,29.6,27.5,00.0,38.3,31.5,24.1,0000.0,0016.71,0006.05,0004.94
2022-07-23 16:12:00,,0825.9,5.01,0.00,29.6,27.6,00.0,38.3,31.4,23.3,0000.0,0016.94,0006.09,0004.98
2022-07-23 16:13:00,,0825.9,5.00,0.00,29.6,27.7,00.0,38.3,31.4,23.3,0000.0,0016.78,0006.08,0005.01
2022-07-23 16:14:00,,0825.9,5.00,0.00,29.6,27.9,00.0,38.3,31.4,22.7,0000.0,0017.37,0006.09,0005.04
2022-07-23 16:15:00,,0825.9,5.01,0.00,29.6,28.1,00.0,38.3,31.5,22.1,0000.0,0017.82,0006.08,0005.02
2022-07-23 16:16:00,,0825.9,5.00,0.00,29.6,28.3,00.0,38.3,31.6,22.5,0000.0,0017.03,0006.02,0004.99
2022-07-23 16:17:00,,0825.9,5.00,0.00,29.6,28.3,00.0,38.3,31.6,23.3,0000.0,0016.52,0006.04,0004.97
2022-07-23 16:18:00,,0825.9,5.00,0.00,29.7,27.8,00.0,38.3,31.6,22.3,0000.0,0016.10,0005.95,0004.93
2022-07-23 16:19:00,,0825.9,5.01,0.00,29.6,27.4,00.0,38.2,31.5,21.8,0000.0,0015.40,0005.88,0004.89
2022-07-23 16:20:00,,0825.9,4.99,0.00,29.6,27.4,00.0,38.2,31.4,22.2,0000.0,0014.99,0005.78,0004.84
2022-07-23 16:21:00,,0825.9,5.01,0.00,29.6,27.5,00.0,38.2,31.4,22.8,0000.0,0013.60,0005.70,0004.80
2022-07-23 16:22:00,,0825.9,5.01,0.00,29.5,27.7,00.0,38.3,31.4,22.9,0000.0,0013.02,0005.64,0004.79
2022-07-23 16:23:00,,0825.9,5.00,0.00,29.6,27.9,00.0,38.3,31.5,22.7,0000.0,0012.53,0005.61,0004.77
2022-07-23 16:24:00,,0825.9,5.00,0.00,29.6,28.1,00.0,38.3,31.5,22.3,0000.0,0012.85,0005.64,0004.75
2022-07-23 16:25:00,,0825.8,4.99,0.00,29.6,28.3,00.0,38.3,31.6,21.4,0000.0,0012.16,0005.62,0004.73
2022-07-23 16:26:00,,0825.7,5.00,0.00,29.6,28.2,00.0,38.3,31.6,21.8,0000.0,0011.83,0005.60,0004.72
2022-07-23 16:27:00,,0826.1,5.01,0.00,29.6,27.7,00.0,38.2,31.5,21.9,0000.0,0011.89,0005.59,0004.70
2022-07-23 16:28:00,,0826.0,4.99,0.00,29.6,27.5,00.0,38.2,31.5,21.6,0000.0,0011.97,0005.53,0004.68
2022-07-23 16:29:00,,0826.1,5.00,0.00,29.6,27.6,00.0,38.2,31.4,21.8,0000.0,0011.98,0005.52,0004.65
2022-07-23 16:30:00,,0826.0,5.01,0.00,29.6,27.7,00.0,38.3,31.4,22.5,0000.0,0012.90,0005.55,0004.64
2022-07-23 16:31:00,,0826.2,5.00,0.00,29.6,27.9,00.0,38.3,31.4,22.1,0000.0,0013.06,0005.58,0004.64
2022-07-23 16:32:00,,0825.8,5.00,0.00,29.6,28.0,00.0,38.3,31.5,21.5,0000.0,0013.46,0005.55,0004.62
2022-07-23 16:33:00,,0825.8,5.00,0.00,29.6,28.2,00.0,38.3,31.5,21.4,0000.0,0012.73,0005.53,0004.59
2022-07-23 16:34:00,,0825.8,5.00,0.00,29.6,28.3,00.0,38.3,31.6,21.1,0000.0,0012.63,0005.49,0004.55
2022-07-23 16:35:00,,0825.8,5.00,0.00,29.6,27.9,00.0,38.3,31.6,21.3,0000.0,0012.62,0005.42,0004.51
2022-07-23 16:36:00,,0826.0,5.01,0.00,29.6,27.4,00.0,38.2,31.5,21.5,0000.0,0012.59,0005.36,0004.50
2022-07-23 16:37:00,,0825.8,5.00,0.00,29.6,27.4,00.0,38.2,31.4,21.9,0000.0,0012.32,0005.33,0004.48
2022-07-23 16:38:00,,0825.8,5.00,0.00,29.6,27.6,00.0,38.2,31.4,21.6,0000.0,0012.45,0005.32,0004.48
2022-07-23 16:39:00,,0825.8,5.00,0.00,29.5,27.7,00.0,38.2,31.4,21.7,0000.0,0013.49,0005.30,0004.48
2022-07-23 16:40:00,,0825.8,5.00,0.00,29.5,27.9,00.0,38.3,31.4,21.7,0000.0,0014.61,0005.28,0004.48
2022-07-23 16:41:00,,0825.9,5.00,0.00,29.6,28.1,00.0,38.3,31.5,21.4,0000.0,0014.02,0005.26,0004.48
2022-07-23 16:42:00,,0826.0,5.00,0.00,29.6,28.2,00.0,38.3,31.6,20.8,0000.0,0013.66,0005.18,0004.45
2022-07-23 16:43:00,,0825.9,5.01,0.00,29.6,27.8,00.0,38.2,31.5,21.2,0000.0,0013.18,0005.17,0004.43
2022-07-23 16:44:00,,0825.9,5.00,0.00,29.6,27.4,00.0,38.2,31.4,21.8,0000.0,0013.30,0005.19,0004.42
2022-07-23 16:45:00,,0825.9,5.01,0.00,29.6,27.4,00.0,38.2,31.4,21.9,0000.0,0013.61,0005.20,0004.42
2022-07-23 16:46:00,,0825.9,4.99,0.00,29.5,27.5,00.0,38.2,31.4,20.6,0000.0,0013.64,0005.14,0004.40
2022-07-23 16:47:00,,0825.9,5.00,0.00,29.5,27.7,00.0,38.2,31.4,20.8,0000.0,0013.33,0005.15,0004.38
2022-07-23 16:48:00,,0825.9,5.00,0.00,29.5,27.9,00.0,38.2,31.4,20.5,0000.0,0013.35,0005.14,0004.36
2022-07-23 16:49:00,,0825.9,5.00,0.00,29.6,28.1,00.0,38.2,31.5,20.6,0000.0,0013.39,0005.12,0004.33
2022-07-23 16:50:00,,0825.9,5.00,0.00,29.6,28.0,00.0,38.2,31.5,20.5,0000.0,0013.03,0005.12,0004.32
2022-07-23 16:51:00,,0826.0,5.01,0.00,29.6,27.4,00.0,38.2,31.4,20.7,0000.0,0011.97,0005.07,0004.29
2022-07-23 16:52:00,,0825.9,4.99,0.00,29.5,27.2,00.0,38.1,31.4,20.6,0000.0,0012.16,0005.08,0004.27
2022-07-23 16:53:00,,0825.9,5.00,0.00,29.5,27.4,00.0,38.2,31.3,20.8,0000.0,0012.74,0005.16,0004.26
2022-07-23 16:54:00,,0825.9,5.00,0.00,29.5,27.5,00.0,38.2,31.3,20.9,0000.0,0013.39,0005.20,0004.26
2022-07-23 16:55:00,,0825.9,5.02,0.00,29.5,27.7,00.0,38.2,31.3,20.4,0000.0,0013.32,0005.13,0004.24
2022-07-23 16:56:00,,0825.9,5.00,0.00,29.5,27.9,00.0,38.2,31.4,20.2,0000.0,0013.24,0005.08,0004.22
2022-07-23 16:57:00,,0826.0,5.00,0.00,29.5,28.1,00.0,38.2,31.5,19.8,0000.0,0012.91,0005.13,0004.21
2022-07-23 16:58:00,,0826.0,5.00,0.00,29.6,28.0,00.0,38.2,31.5,19.9,0000.0,0013.03,0005.11,0004.19
2022-07-23 16:59:00,,0826.0,5.00,0.00,29.5,27.5,00.0,38.1,31.4,20.0,0000.0,0013.08,0005.07,0004.17
